Terminal Aerodrome Forecast
Issued by NWS

Home | Current Version | Previous Version | Text Only | Print | Product List | Glossary On
Versions: 1 2 3 4 5 6 7 8 9 10 11 12 13 14 15 16 17 18 19 20 21 22 23 24 25 26 27 28 29 30 31 32 33 34 35 36 37 38 39 40 41 42 43 44 45 46
000
FTUS45 KVEF 201100
TAFLAS
TAF
KLAS 201139Z 2012/2112 20006KT P6SM BKN110
     FM202000 12007KT P6SM BKN100
     FM210000 18009KT P6SM VCSH SCT060 BKN100 PROB30 2100/2104 -TSRA
      BKN060CB
     FM210600 21009KT P6SM VCSH SCT050 BKN080 PROB30 2106/2112 -SHRA
      BKN050=

USA.gov is the U.S. government's official web portal to all federal, state and local government web resources and services.